This is the latest recevied weather packets stored in our database for station/object K2EJ-13. If no packets are shown the sender has not sent any weather packets the latest 10 day(s).
| Time | Temp. | Humidity | Pressure | Rain* | Wind** | Luminosity | Snow |
|---|---|---|---|---|---|---|---|
| 1777750516 | 16.67° C | 39% | 1011.4 hPa | 0 mm | - | - | - |
| 1777749915 | 16.67° C | 41% | 1011.6 hPa | 0 mm | - | - | - |
| 1777748135 | 17.22° C | 42% | 1012.1 hPa | 0 mm | - | - | - |
| 1777744536 | 17.22° C | 39% | 1012.7 hPa | 0 mm | - | - | - |
| 1777743915 | 16.67° C | 42% | 1012.7 hPa | 0 mm | - | - | - |
| 1777742136 | 16.11° C | 44% | 1013 hPa | 0 mm | - | - | - |
| 1777738515 | 15.56° C | 46% | 1013.4 hPa | 0 mm | - | - | - |
| 1777734956 | 13.89° C | 49% | 1013.5 hPa | 0 mm | - | - | - |
| 1777727115 | 11.67° C | 62% | 1013.4 hPa | 0 mm | - | - | - |
| 1777724715 | 11.67° C | 69% | 1013.5 hPa | 0 mm | - | - | - |
| 1777722336 | 10.56° C | 74% | 1013.2 hPa | 0 mm | - | - | - |
| 1777718136 | 10° C | 74% | 1012.9 hPa | 0 mm | - | - | - |
| 1777716316 | 10.56° C | 73% | 1012.2 hPa | 0 mm | - | - | - |
| 1777715116 | 10.56° C | 73% | 1012 hPa | 0 mm | - | - | - |
| 1777713916 | 11.11° C | 72% | 1012.1 hPa | 0 mm | - | - | - |
| 1777713315 | 11.67° C | 73% | 1012.3 hPa | 0 mm | - | - | - |
| 1777712715 | 11.67° C | 74% | 1012.4 hPa | 0 mm | - | - | - |
| 1777707935 | 11.67° C | 81% | 1011.7 hPa | 0 mm | - | - | - |
| 1777704916 | 11.67° C | 84% | 1011.7 hPa | 0 mm | - | - | - |
| 1777701315 | 12.78° C | 82% | 1012.2 hPa | 0 mm | - | - | - |
| 1777698936 | 12.78° C | 88% | 1012 hPa | 0 mm | - | - | - |
| 1777697715 | 13.33° C | 86% | 1012.3 hPa | 0 mm | - | - | - |
| 1777695915 | 13.89° C | 80% | 1012 hPa | 0 mm | - | - | - |
| 1777684515 | 13.33° C | 63% | 1011.2 hPa | 0 mm | - | - | - |
| 1777682736 | 13.33° C | 65% | 1010.8 hPa | 0 mm | - | - | - |
* Rain latest hour (hover to see other rain measurements)
** Current wind speed in m/s (hover to see current wind gust speed)